S59MA-6 Weather Reports


time (UTC)temp
C
wind
direction
speed
KPH
gust
KPH
rain 1hr
cm
rain 24hr
cm
rain mn
cm
humidity
%
barometer
mb
20260507225033 8 248 0.0 0.0 16.43 25.37 0.00 77 1005.2
20260507224652 8 248 0.0 0.0 16.43 25.37 0.00 77 1005.1
20260507224528 8 248 0.0 0.0 16.43 25.37 0.00 77 1005.1
20260507224030 8 248 0.0 0.0 16.43 25.37 0.00 77 1005.1
20260507223028 8 248 0.0 0.0 16.43 25.37 0.00 76 1005.1
20260507222528 9 248 0.0 0.0 16.43 25.37 0.00 76 1005.2
20260507222202 9 248 0.0 0.0 16.43 25.37 0.00 75 1005.4
20260507222029 9 248 0.0 0.0 16.43 25.37 0.00 75 1005.4
20260507221528 9 248 0.0 0.0 3.20 25.37 0.00 75 1005.1
20260507220530 9 248 0.0 0.0 0.00 25.37 0.00 74 1005.1
20260507220028 9 248 0.0 0.0 0.00 25.37 0.00 74 1005.2
20260507215528 9 248 0.0 0.0 0.00 25.37 0.00 74 1005.1
20260507215029 9 248 0.0 0.0 0.00 25.37 0.00 74 1004.9
20260507213530 9 248 0.0 0.0 13.21 25.37 0.00 73 1004.8
20260507213028 10 248 0.0 0.0 13.21 25.37 0.00 72 1004.7
20260507212528 10 248 0.0 0.0 13.21 25.37 0.00 72 1004.9
20260507212030 10 248 0.0 0.0 13.21 25.37 0.00 72 1004.8
20260507211528 10 248 0.0 0.0 25.37 25.37 0.00 72 1004.7
20260507211033 10 248 0.0 0.0 25.37 25.37 0.00 72 1004.5
20260507210528 10 248 0.0 0.0 25.37 25.37 0.00 71 1004.6
20260507210028 10 248 0.0 0.0 25.37 25.37 0.00 71 1004.5
20260507205028 10 248 0.0 0.0 25.37 25.37 0.00 69 1004.0
20260507204529 11 248 0.0 0.0 25.37 25.37 0.00 69 1004.3
20260507204030 11 248 0.0 0.0 25.37 25.37 0.00 69 1004.2
20260507203528 11 248 0.0 0.0 25.37 25.37 0.00 68 1004.3
20260507202528 11 248 0.0 0.0 25.37 25.37 0.00 68 1004.1
20260507202028 11 359 0.0 0.0 25.37 25.37 0.00 68 1004.0
20260507201528 11 359 0.0 0.0 25.37 25.37 0.00 68 1001.6
20260507200753 12 248 0.0 0.0 25.37 25.37 0.00 67 1003.8
20260507200528 12 248 0.0 0.0 25.37 25.37 0.00 67 1003.8
20260507200028 12 359 0.0 0.0 25.37 25.37 0.00 66 1003.8
20260507195529 12 359 0.0 0.0 25.37 25.37 0.00 66 1002.9
20260507195028 12 248 0.0 0.0 25.37 25.37 0.00 65 1001.9
20260507194528 12 248 0.0 0.0 25.37 25.37 0.00 65 1002.7
20260507193528 12 248 0.0 0.0 0.81 25.37 0.00 64 1003.4
20260507192530 12 248 0.0 0.0 0.81 25.37 0.00 63 1003.1
20260507192028 13 248 0.0 0.0 14.02 25.37 0.00 62 1002.8
20260507191528 13 248 0.0 0.0 14.02 25.37 0.00 62 1000.2
20260507190528 13 248 0.0 0.0 16.15 25.37 0.00 61 1002.7
20260507190028 14 248 0.0 0.0 16.15 25.37 0.00 61 1001.7
20260507185531 14 359 0.0 0.0 16.15 25.37 0.00 60 1000.6
20260507184530 15 248 0.0 0.0 25.37 25.37 0.00 58 1000.8
20260507183528 16 359 0.0 0.0 16.15 25.37 0.00 57 1000.6
20260507182530 16 359 0.0 0.0 25.37 25.37 0.00 55 1000.5
20260507182028 16 248 0.0 0.0 16.15 25.37 0.00 54 1001.4
20260507181032 16 248 0.0 0.0 0.81 25.37 0.00 53 1001.9
20260507180531 16 248 0.0 0.0 0.81 25.37 0.00 53 1001.8
20260507180035 17 359 0.0 0.0 0.81 14.07 0.00 53 1000.6
20260507175529 17 359 0.0 0.0 25.37 14.07 0.00 52 1000.7
20260507175029 17 248 0.0 0.0 25.37 14.07 0.00 52 1000.8
20260507174529 17 270 0.0 0.0 25.37 14.07 0.00 51 1001.8
20260507173529 17 248 0.0 0.0 25.37 14.07 0.00 50 1001.7
20260507173030 17 248 0.0 0.0 25.37 14.07 0.00 49 1001.6
20260507172530 17 248 0.0 0.0 25.37 14.07 0.00 49 1000.3
20260507171604 18 248 0.0 0.0 25.37 14.07 0.00 49 999.7
20260507171529 18 248 0.0 0.0 25.37 14.07 0.00 49 999.7
20260507171033 18 248 0.0 0.0 25.37 14.07 0.00 49 1001.2
20260507170529 18 248 0.0 0.0 25.37 0.86 0.00 50 1000.1
20260507170030 18 248 0.0 0.0 25.37 0.91 0.00 50 999.7
20260507165030 18 248 0.0 0.0 25.37 0.91 0.00 49 999.9
20260507164530 18 248 0.0 0.0 25.37 0.91 0.00 48 999.9
20260507163030 19 248 0.0 0.0 25.37 25.37 0.00 48 1000.8
20260507162530 19 338 0.0 0.0 25.37 25.37 0.00 47 1000.7
20260507162033 19 338 0.0 0.0 25.37 25.37 0.00 47 1000.6
20260507160030 20 359 0.0 0.0 25.37 25.37 0.00 45 1000.5
20260507155030 21 338 0.0 0.0 25.37 25.37 0.00 46 1000.2
20260507153529 21 338 0.0 0.0 25.37 25.37 0.00 47 1000.1
20260507153030 21 338 0.0 0.0 25.37 25.37 0.00 47 1000.0
20260507152529 21 338 0.0 0.0 25.37 25.37 0.00 47 999.7
20260507152029 21 338 0.0 0.0 25.37 25.37 0.00 48 999.8
20260507151529 21 338 0.0 0.0 25.37 25.37 0.00 48 999.8
20260507150530 21 338 0.0 0.0 25.37 25.37 0.00 48 999.4
20260507145754 21 338 0.0 0.0 25.37 25.37 0.00 49 999.6
20260507145529 21 338 0.0 0.0 25.37 25.37 0.00 49 999.6
20260507145030 21 338 0.0 0.0 25.37 25.37 0.00 51 999.6
20260507143737 21 338 0.0 0.0 25.37 25.37 0.00 52 999.9
20260507143607 21 338 0.0 0.0 25.37 25.37 0.00 52 999.9
20260507143529 21 338 0.0 0.0 25.37 25.37 0.00 52 999.9
20260507143030 21 338 0.0 0.0 25.37 25.37 0.00 52 999.8
20260507142529 20 338 0.0 0.0 25.37 25.37 0.00 51 999.8
20260507142030 21 338 0.0 0.0 25.37 25.37 0.00 52 999.7
20260507141529 21 338 0.0 0.0 25.37 25.37 0.00 53 999.6
20260507140531 21 338 0.0 0.0 25.37 25.37 0.00 58 999.7
20260507140029 20 248 0.0 0.0 25.37 25.37 0.00 59 999.7
20260507135032 20 248 0.0 0.0 25.37 25.37 0.00 59 999.9
20260507134529 20 359 0.0 0.0 25.37 25.37 0.00 60 999.9
20260507133529 20 248 0.0 0.0 25.37 25.37 0.00 60 1000.0
20260507132627 20 248 0.0 0.0 25.37 25.37 0.00 60 1000.1
20260507132529 20 248 0.0 0.0 25.37 25.37 0.00 60 1000.1
20260507132257 20 359 0.0 0.0 25.37 25.37 0.00 60 1000.1
20260507132105 20 359 0.0 0.0 25.37 25.37 0.00 60 1000.1
20260507132029 20 359 0.0 0.0 25.37 25.37 0.00 60 1000.1
20260507130531 21 248 0.0 0.0 25.37 25.37 0.00 60 998.7
20260507125747 20 248 0.0 0.0 25.37 25.37 0.00 62 1000.1
20260507125531 20 248 0.0 0.0 25.37 25.37 0.00 62 1000.1
20260507125030 20 248 0.0 0.0 25.37 25.37 0.00 63 1000.3
20260507124533 20 248 0.0 0.0 25.37 25.37 0.00 63 1000.1
20260507122256 20 248 0.0 0.0 0.00 25.37 0.00 62 1000.4
20260507122031 20 248 0.0 0.0 0.00 25.37 0.00 62 1000.4
20260507121531 20 248 0.0 0.0 0.00 25.37 0.00 62 1000.5
20260507114531 21 248 0.0 0.0 25.37 25.37 0.00 63 1000.9
20260507114032 20 248 0.0 0.0 25.37 25.37 0.00 63 1000.9
20260507113531 20 248 0.0 0.0 25.37 25.37 0.00 62 1000.9
20260507112530 21 248 0.0 0.0 25.37 25.37 0.00 66 1000.9
20260507112031 20 248 0.0 0.0 25.37 25.37 0.00 66 1001.3
20260507110530 19 359 0.0 0.0 25.37 25.37 0.00 67 998.3
20260507110031 19 248 0.0 0.0 25.37 25.37 0.00 63 1000.6
20260507105030 20 248 0.0 0.0 25.37 25.37 0.00 63 1000.3
20260507104536 20 248 0.0 0.0 13.21 25.37 0.00 61 1001.3
20260507103530 21 248 0.0 0.0 0.00 25.37 0.00 60 1001.4
20260507102803 21 248 0.0 0.0 13.21 25.37 0.00 63 1001.3
20260507102530 21 248 0.0 0.0 13.21 25.37 0.00 63 1001.3
20260507102031 21 248 0.0 0.0 25.37 25.37 0.00 64 1001.4
20260507101534 21 248 0.0 0.0 25.37 25.37 0.00 66 1001.3
20260507101036 21 248 0.0 0.0 25.37 25.37 0.00 67 1001.3
20260507095531 19 248 0.0 0.0 25.37 25.37 0.00 69 1001.5
20260507095031 18 248 0.0 0.0 25.37 25.37 0.00 71 1001.5
20260507094533 18 248 0.0 0.0 25.37 25.37 0.00 71 1001.5
20260507093530 18 248 0.0 0.0 25.37 25.37 0.00 71 1001.7
20260507093034 18 359 0.0 0.0 25.37 25.37 0.00 71 1001.8
20260507092530 18 359 0.0 0.0 13.21 25.37 0.00 73 1000.5
20260507092033 18 248 0.0 0.0 0.00 25.37 0.00 72 1000.0
20260507091530 18 248 0.0 0.0 0.00 25.37 0.00 73 1001.6
20260507090532 19 248 0.0 0.0 0.00 25.37 0.00 74 1001.6
20260507090030 19 248 0.0 0.0 0.00 25.37 0.00 74 1001.7
20260507085032 19 248 0.0 0.0 0.00 25.37 0.00 76 1001.8
20260507084530 19 248 0.0 0.0 0.00 25.37 0.00 78 1001.7
20260507083530 18 248 0.0 0.0 0.00 25.37 0.00 79 1001.8
20260507083032 18 248 0.0 0.0 0.00 25.37 0.00 78 1001.8
20260507082030 18 248 0.0 0.0 0.00 25.37 0.00 81 1001.9
20260507081532 18 248 0.0 0.0 0.00 25.37 0.00 83 1001.8
20260507080532 18 248 0.0 0.0 0.00 25.37 0.00 84 1001.8
20260507080031 18 248 0.0 0.0 0.00 25.37 0.00 85 1001.8
20260507075033 17 248 0.0 0.0 0.00 25.37 0.00 86 1002.0
20260507074532 17 248 0.0 0.0 0.00 25.37 0.00 86 1001.8
20260507073032 15 248 0.0 0.0 0.05 25.37 0.00 88 1001.9
20260507072534 15 248 0.0 0.0 0.05 25.37 0.00 88 1001.7
20260507072032 15 248 0.0 0.0 0.05 25.37 0.00 88 1001.9
20260507071533 14 248 0.0 0.0 0.05 25.37 0.00 88 1001.9
20260507071036 14 248 0.0 0.0 0.05 25.37 0.00 88 1001.8
20260507070532 14 248 0.0 0.0 0.05 25.37 0.00 88 1001.9
20260507070031 14 248 0.0 0.0 0.05 25.37 0.00 88 1001.7
20260507065035 14 248 0.0 0.0 0.05 25.37 0.00 89 1001.7
20260507063033 13 359 0.0 0.0 0.00 25.37 0.00 89 1001.9
20260507062532 13 359 0.0 0.0 0.00 25.37 0.00 89 1001.7
20260507062032 12 248 0.0 0.0 0.00 25.37 0.00 89 1001.6
20260507061531 12 248 0.0 0.0 0.00 25.37 0.00 89 1001.7
20260507061034 12 248 0.0 0.0 0.00 25.37 0.00 89 1001.6
20260507060531 11 248 0.0 0.0 0.00 25.37 0.00 89 1001.4
20260507055032 11 248 0.0 0.0 0.00 25.37 0.00 89 1001.4
20260507054531 11 248 0.0 0.0 0.00 25.37 0.00 89 1001.5
20260507053739 11 248 0.0 0.0 0.00 25.37 0.00 89 1001.4
20260507053532 11 248 0.0 0.0 0.00 25.37 0.00 89 1001.4
20260507053034 11 248 0.0 0.0 0.00 25.37 0.00 89 1001.2
20260507052532 11 248 0.0 0.0 0.00 25.37 0.00 89 1001.3
20260507052035 11 248 0.0 0.0 0.00 25.37 0.00 89 1001.4
20260507051037 11 248 0.0 0.0 0.00 25.37 0.00 88 1001.1
20260507050032 10 248 0.0 0.0 0.00 25.37 0.00 88 1000.9
20260507045532 10 248 0.0 0.0 0.00 25.37 0.00 88 1000.9
20260507045256 10 248 0.0 0.0 0.00 25.37 0.00 88 1000.9
20260507045032 10 248 0.0 0.0 0.00 25.37 0.00 88 1000.9
20260507044033 10 248 0.0 0.0 0.00 25.37 0.00 88 1000.7
20260507043532 10 248 0.0 0.0 0.00 25.37 0.00 88 1000.7
20260507043032 10 248 0.0 0.0 0.00 25.37 0.00 88 1000.7
20260507042532 10 248 0.0 0.0 0.00 25.37 0.00 88 1000.9
20260507042032 10 248 0.0 0.0 0.00 25.37 0.00 88 1000.7
20260507041750 10 248 0.0 0.0 0.00 25.37 0.00 88 1000.5
20260507041533 10 248 0.0 0.0 0.00 25.37 0.00 88 1000.5
20260507040532 10 248 0.0 0.0 0.00 25.37 0.00 88 1000.4
20260507040032 10 248 0.0 0.0 0.00 25.37 0.00 88 1000.5
20260507035034 10 248 0.0 0.0 0.00 25.37 0.00 88 1000.2
20260507034532 10 248 0.0 0.0 0.00 25.37 0.00 88 1000.2
20260507033034 10 248 0.0 0.0 0.00 25.37 0.00 88 1000.4
20260507032534 10 248 0.0 0.0 0.00 25.37 0.00 88 1000.4
20260507032033 10 248 0.0 0.0 0.00 25.37 0.00 88 1000.3
20260507031531 10 248 0.0 0.0 0.00 25.37 0.00 88 1000.5
20260507031035 10 248 0.0 0.0 0.00 25.37 0.00 88 1000.4
20260507030533 10 248 0.0 0.0 0.00 25.37 0.00 88 1000.3
20260507025532 10 248 0.0 0.0 0.00 25.37 0.00 88 1000.0
20260507025032 10 248 0.0 0.0 0.00 25.37 0.00 87 1000.2
20260507024532 10 248 0.0 0.0 0.00 25.37 0.00 87 1000.2
20260507023532 11 248 0.0 0.0 0.00 25.37 0.00 87 1000.2
20260507023032 11 248 0.0 0.0 0.00 25.37 0.00 87 1000.2
20260507022535 11 248 0.0 0.0 0.00 25.37 0.00 87 1000.3
20260507022249 11 248 0.0 0.0 0.00 25.37 0.00 87 1000.1
20260507022034 11 248 0.0 0.0 0.00 25.37 0.00 87 1000.1
20260507021535 11 248 0.0 0.0 0.00 25.37 0.00 87 1000.3
20260507021034 11 248 0.0 0.0 0.00 25.37 0.00 87 1000.3
20260507020533 11 248 0.0 0.0 0.00 25.37 0.00 87 1000.2
20260507020035 11 248 0.0 0.0 0.00 25.37 0.00 87 1000.0
20260507015532 11 248 0.0 0.0 0.00 25.37 0.00 87 1000.1
20260507015033 11 248 0.0 0.0 0.00 25.37 0.00 87 1000.2
20260507013532 11 248 0.0 0.0 0.00 25.37 0.00 86 1000.1
20260507013033 11 248 0.0 0.0 0.00 25.37 0.00 86 1000.1
20260507012532 11 248 0.0 0.0 0.00 25.37 0.00 87 1000.1
20260507011753 12 248 0.0 0.0 0.00 25.37 0.00 87 1000.0
20260507011534 12 248 0.0 0.0 0.00 25.37 0.00 87 1000.0
20260507011035 12 359 0.0 0.0 0.00 25.37 0.00 87 1000.0
20260507010532 12 359 0.0 0.0 0.00 25.37 0.00 87 1000.1
20260507010033 12 248 0.0 0.0 0.00 25.37 0.00 87 1000.1
20260507005532 12 248 0.0 0.0 0.00 25.37 0.00 87 1000.1
20260507005033 12 248 0.0 0.0 0.00 25.37 0.00 87 1000.1
20260507004532 12 248 0.0 0.0 0.00 25.37 0.00 87 1000.0
20260507004035 12 248 0.0 0.0 0.00 25.37 0.00 87 1000.2
20260507003731 12 248 0.0 0.0 0.00 25.37 0.00 87 1000.2
20260507003534 12 248 0.0 0.0 0.00 25.37 0.00 87 1000.2
20260507003032 12 248 0.0 0.0 0.00 25.37 0.00 87 1000.2
20260507002755 12 248 0.0 0.0 0.00 25.37 0.00 87 1000.2
20260507002533 12 248 0.0 0.0 0.00 25.37 0.00 87 1000.2
20260507002032 12 248 0.0 0.0 0.00 25.37 0.00 87 1000.2
20260507001036 12 248 0.0 0.0 0.00 25.37 0.00 87 1000.4
20260507000033 12 248 0.0 0.0 0.00 25.37 0.00 87 1000.3
20260506235032 12 248 0.0 0.0 0.00 25.37 0.00 87 1000.2
20260506234535 12 248 0.0 0.0 0.00 25.37 0.00 87 1000.3
20260506233534 12 248 0.0 0.0 0.00 25.37 0.00 87 1000.3
20260506233034 12 248 0.0 0.0 0.00 25.37 0.00 87 1000.1
20260506232532 12 248 0.0 0.0 0.00 25.37 0.00 87 1000.4
20260506232223 12 248 0.0 0.0 0.00 25.37 0.00 87 1000.4
20260506232032 12 248 0.0 0.0 0.00 25.37 0.00 87 1000.4
20260506231533 12 248 0.0 0.0 0.00 25.37 0.00 87 1000.4
20260506231034 12 248 0.0 0.0 0.00 25.37 0.00 87 1000.4
20260506230658 12 248 0.0 0.0 0.00 25.37 0.00 87 1000.4
20260506230536 12 248 0.0 0.0 0.00 25.37 0.00 87 1000.4
20260506225532 12 248 0.0 0.0 0.00 25.37 0.00 88 1000.3